| time (UTC) | temp F | wind direction | speed MPH | gust MPH | rain 1hr in | rain 24hr in | rain mn in | humidity % | barometer mb |
| 20260506105524 | 55 | 18 | 10.0 | 18.0 | 0.00 | 0.00 | 0.00 | 81 | |
| 20260506104557 | 54 | 17 | 14.0 | 20.0 | 0.00 | 0.00 | 0.00 | 81 | |
| 20260506103539 | 54 | 5 | 13.0 | 18.0 | 0.00 | 0.00 | 0.00 | 82 | |
| 20260506102532 | 53 | 17 | 12.0 | 18.0 | 0.00 | 0.00 | 0.00 | 83 | |
| 20260506101537 | 53 | 18 | 9.0 | 19.0 | 0.00 | 0.00 | 0.00 | 83 | |
| 20260506100550 | 53 | 348 | 11.0 | 18.0 | 0.00 | 0.00 | 0.00 | 84 | |
| 20260506095532 | 52 | 355 | 10.0 | 16.0 | 0.00 | 0.00 | 0.00 | 85 | |
| 20260506094522 | 52 | 355 | 10.0 | 15.0 | 0.00 | 0.00 | 0.00 | 85 | |
| 20260506093527 | 52 | 28 | 11.0 | 19.0 | 0.00 | 0.00 | 0.00 | 83 | |
| 20260506092539 | 52 | 22 | 11.0 | 19.0 | 0.00 | 0.00 | 0.00 | 83 | |
| 20260506091524 | 52 | 42 | 11.0 | 18.0 | 0.00 | 0.00 | 0.00 | 81 | |
| 20260506090537 | 52 | 5 | 14.0 | 19.0 | 0.00 | 0.00 | 0.00 | 81 | |
| 20260506085541 | 52 | 34 | 11.0 | 20.0 | 0.00 | 0.00 | 0.00 | 80 | |
| 20260506084534 | 52 | 9 | 8.0 | 15.0 | 0.00 | 0.00 | 0.00 | 82 | |
| 20260506083539 | 52 | 13 | 11.0 | 20.0 | 0.00 | 0.00 | 0.00 | 80 | |
| 20260506082548 | 53 | 28 | 11.0 | 16.0 | 0.00 | 0.00 | 0.00 | 81 | |
| 20260506081532 | 53 | 355 | 11.0 | 20.0 | 0.00 | 0.00 | 0.00 | 80 | |
| 20260506080544 | 53 | 5 | 10.0 | 19.0 | 0.00 | 0.00 | 0.00 | 81 | |
| 20260506072533 | 52 | 28 | 13.0 | 21.0 | 0.00 | 0.00 | 0.00 | 82 | |
| 20260506071602 | 52 | 13 | 12.0 | 19.0 | 0.00 | 0.00 | 0.00 | 81 | |
| 20260506070524 | 53 | 5 | 11.0 | 19.0 | 0.00 | 0.00 | 0.00 | 82 | |
| 20260506061524 | 50 | 5 | 11.0 | 16.0 | 0.00 | 0.00 | 0.00 | 85 | |
| 20260506060532 | 50 | 360 | 10.0 | 14.0 | 0.00 | 0.00 | 0.00 | 86 | |
| 20260506050540 | 48 | 5 | 8.0 | 12.0 | 0.00 | 0.00 | 0.00 | 86 | |
| 20260506044532 | 48 | 337 | 7.0 | 11.0 | 0.00 | 0.00 | 0.00 | 87 | |
| 20260506043606 | 48 | 360 | 7.0 | 10.0 | 0.00 | 0.00 | 0.00 | 87 | |
| 20260506042528 | 48 | 10 | 6.0 | 10.0 | 0.00 | 0.00 | 0.00 | 87 | |
| 20260506041531 | 47 | 5 | 6.0 | 8.0 | 0.00 | 0.00 | 0.00 | 86 | |
| 20260506040525 | 47 | 5 | 6.0 | 8.0 | 0.00 | 0.00 | 0.00 | 86 | |
| 20260506035558 | 47 | 5 | 6.0 | 9.0 | 0.00 | 0.00 | 0.00 | 86 | |
| 20260506034522 | 47 | 26 | 6.0 | 12.0 | 0.00 | 0.00 | 0.00 | 86 | |
| 20260506033523 | 47 | 5 | 6.0 | 9.0 | 0.00 | 0.00 | 0.00 | 86 | |
| 20260506032535 | 47 | 18 | 8.0 | 10.0 | 0.00 | 0.00 | 0.00 | 86 | |
| 20260506031548 | 48 | 19 | 6.0 | 9.0 | 0.00 | 0.00 | 0.00 | 86 | |
| 20260506030532 | 48 | 25 | 7.0 | 12.0 | 0.00 | 0.00 | 0.00 | 86 | |
| 20260506025545 | 48 | 17 | 7.0 | 12.0 | 0.00 | 0.00 | 0.00 | 86 | |
| 20260506024528 | 48 | 9 | 6.0 | 12.0 | 0.00 | 0.00 | 0.00 | 86 | |
| 20260506023532 | 48 | 10 | 7.0 | 10.0 | 0.00 | 0.00 | 0.00 | 86 | |
| 20260506022526 | 48 | 15 | 7.0 | 11.0 | 0.00 | 0.00 | 0.00 | 86 | |
| 20260506021525 | 48 | 17 | 7.0 | 12.0 | 0.00 | 0.00 | 0.00 | 86 | |
| 20260506020559 | 48 | 20 | 7.0 | 11.0 | 0.00 | 0.00 | 0.00 | 87 | |
| 20260506015522 | 47 | 12 | 7.0 | 12.0 | 0.00 | 0.00 | 0.00 | 87 | |
| 20260506014556 | 47 | 17 | 7.0 | 12.0 | 0.00 | 0.00 | 0.00 | 87 | |
| 20260506013527 | 48 | 23 | 7.0 | 11.0 | 0.00 | 0.00 | 0.00 | 87 | |
| 20260506012531 | 48 | 15 | 6.0 | 11.0 | 0.00 | 0.00 | 0.00 | 87 | |
| 20260506011544 | 48 | 12 | 8.0 | 12.0 | 0.00 | 0.00 | 0.00 | 87 | |
| 20260506010523 | 48 | 18 | 7.0 | 11.0 | 0.00 | 0.00 | 0.00 | 87 | |
| 20260506005537 | 48 | 19 | 7.0 | 10.0 | 0.00 | 0.00 | 0.00 | 87 | |
| 20260506004541 | 48 | 22 | 8.0 | 11.0 | 0.00 | 0.00 | 0.00 | 86 | |
| 20260506003524 | 48 | 20 | 8.0 | 11.0 | 0.00 | 0.00 | 0.00 | 86 | |
| 20260506002537 | 48 | 13 | 8.0 | 11.0 | 0.00 | 0.00 | 0.00 | 86 | |
| 20260506001550 | 48 | 15 | 7.0 | 12.0 | 0.00 | 0.00 | 0.00 | 86 | |
| 20260506000534 | 49 | 360 | 8.0 | 11.0 | 0.00 | 0.00 | 0.00 | 86 | |
| 20260505235538 | 49 | 19 | 8.0 | 12.0 | 0.00 | 0.00 | 0.00 | 86 | |
| 20260505234547 | 49 | 22 | 9.0 | 13.0 | 0.00 | 0.00 | 0.00 | 86 | |
| 20260505233539 | 49 | 39 | 9.0 | 13.0 | 0.00 | 0.00 | 0.00 | 86 | |
| 20260505232523 | 49 | 13 | 8.0 | 12.0 | 0.00 | 0.00 | 0.00 | 87 | |
| 20260505231557 | 49 | 24 | 7.0 | 13.0 | 0.00 | 0.00 | 0.00 | 87 | |
| 20260505230540 | 49 | 5 | 8.0 | 12.0 | 0.00 | 0.00 | 0.00 | 87 | |
| 20260505225534 | 49 | 12 | 7.0 | 12.0 | 0.00 | 0.00 | 0.00 | 87 | |
| 20260505224538 | 49 | 17 | 8.0 | 12.0 | 0.00 | 0.00 | 0.00 | 87 | |
| 20260505223546 | 49 | 23 | 7.0 | 11.0 | 0.00 | 0.00 | 0.00 | 86 | |
| 20260505222530 | 50 | 22 | 8.0 | 14.0 | 0.00 | 0.00 | 0.00 | 86 | |
| 20260505221543 | 50 | 10 | 7.0 | 12.0 | 0.00 | 0.00 | 0.00 | 86 | |
| 20260505220528 | 50 | 24 | 8.0 | 13.0 | 0.00 | 0.00 | 0.00 | 86 | |
| 20260505215531 | 50 | 23 | 9.0 | 13.0 | 0.00 | 0.00 | 0.00 | 85 | |
| 20260505214524 | 50 | 17 | 8.0 | 13.0 | 0.00 | 0.00 | 0.00 | 85 | |
| 20260505213557 | 50 | 5 | 7.0 | 14.0 | 0.00 | 0.00 | 0.00 | 85 | |
| 20260505212536 | 51 | 28 | 8.0 | 13.0 | 0.00 | 0.00 | 0.00 | 85 | |
| 20260505211530 | 51 | 24 | 9.0 | 16.0 | 0.00 | 0.00 | 0.00 | 85 | |
| 20260505210535 | 51 | 36 | 10.0 | 15.0 | 0.00 | 0.00 | 0.00 | 84 | |
| 20260505205549 | 51 | 22 | 9.0 | 15.0 | 0.00 | 0.00 | 0.00 | 85 | |
| 20260505204533 | 51 | 35 | 10.0 | 18.0 | 0.00 | 0.00 | 0.00 | 85 | |
| 20260505203547 | 51 | 18 | 9.0 | 13.0 | 0.00 | 0.00 | 0.00 | 85 | |
| 20260505202551 | 51 | 5 | 10.0 | 15.0 | 0.00 | 0.00 | 0.00 | 84 | |
| 20260505201543 | 51 | 18 | 11.0 | 19.0 | 0.00 | 0.00 | 0.00 | 85 | |
| 20260505200542 | 51 | 28 | 11.0 | 18.0 | 0.00 | 0.00 | 0.00 | 84 | |
| 20260505195535 | 52 | 5 | 8.0 | 15.0 | 0.00 | 0.00 | 0.00 | 84 | |
| 20260505194539 | 52 | 9 | 8.0 | 16.0 | 0.00 | 0.00 | 0.00 | 84 | |
| 20260505193522 | 52 | 9 | 9.0 | 16.0 | 0.00 | 0.00 | 0.00 | 83 | |
| 20260505192555 | 52 | 22 | 9.0 | 18.0 | 0.00 | 0.00 | 0.00 | 83 | |
| 20260505191547 | 52 | 14 | 10.0 | 18.0 | 0.00 | 0.00 | 0.00 | 83 | |
| 20260505190539 | 52 | 9 | 10.0 | 16.0 | 0.00 | 0.00 | 0.00 | 82 | |
| 20260505185534 | 53 | 15 | 11.0 | 19.0 | 0.00 | 0.00 | 0.00 | 82 | |
| 20260505184549 | 53 | 11 | 11.0 | 19.0 | 0.00 | 0.00 | 0.00 | 81 | |
| 20260505183533 | 54 | 19 | 10.0 | 16.0 | 0.00 | 0.00 | 0.00 | 81 | |
| 20260505182545 | 54 | 336 | 9.0 | 18.0 | 0.00 | 0.00 | 0.00 | 80 | |
| 20260505181528 | 55 | 360 | 12.0 | 19.0 | 0.00 | 0.00 | 0.00 | 79 | |
| 20260505180523 | 55 | 22 | 9.0 | 16.0 | 0.00 | 0.00 | 0.00 | 79 | |
| 20260505175525 | 55 | 5 | 11.0 | 21.0 | 0.00 | 0.00 | 0.00 | 78 | |
| 20260505174534 | 56 | 350 | 13.0 | 19.0 | 0.00 | 0.00 | 0.00 | 78 | |
| 20260505173538 | 56 | 22 | 10.0 | 18.0 | 0.00 | 0.00 | 0.00 | 78 | |
| 20260505172551 | 56 | 13 | 11.0 | 20.0 | 0.00 | 0.00 | 0.00 | 77 | |
| 20260505171534 | 57 | 17 | 12.0 | 19.0 | 0.00 | 0.00 | 0.00 | 77 | |
| 20260505170546 | 57 | 9 | 10.0 | 20.0 | 0.00 | 0.00 | 0.00 | 76 | |
| 20260505165529 | 58 | 5 | 12.0 | 21.0 | 0.00 | 0.00 | 0.00 | 75 | |
| 20260505164542 | 58 | 18 | 13.0 | 21.0 | 0.00 | 0.00 | 0.00 | 75 | |
| 20260505163526 | 58 | 28 | 15.0 | 23.0 | 0.00 | 0.00 | 0.00 | 75 | |
| 20260505162526 | 59 | 47 | 15.0 | 22.0 | 0.00 | 0.00 | 0.00 | 74 | |
| 20260505161539 | 60 | 5 | 14.0 | 21.0 | 0.00 | 0.00 | 0.00 | 74 | |
| 20260505160522 | 60 | 5 | 14.0 | 20.0 | 0.00 | 0.00 | 0.00 | 73 | |
| 20260505152607 | 60 | 20 | 14.0 | 21.0 | 0.00 | 0.00 | 0.00 | 76 | |
| 20260505151529 | 59 | 22 | 14.0 | 24.0 | 0.00 | 0.00 | 0.00 | 77 | |
| 20260505150528 | 59 | 11 | 13.0 | 21.0 | 0.00 | 0.00 | 0.00 | 77 | |
| 20260505140546 | 59 | 5 | 15.0 | 20.0 | 0.00 | 0.00 | 0.00 | 78 | |
| 20260505124525 | 58 | 17 | 7.0 | 14.0 | 0.00 | 0.00 | 0.00 | 78 | |
| 20260505123539 | 58 | 78 | 10.0 | 14.0 | 0.00 | 0.00 | 0.00 | 78 | |
| 20260505122542 | 58 | 19 | 11.0 | 16.0 | 0.00 | 0.00 | 0.00 | 78 | |
| 20260505121526 | 58 | 80 | 7.0 | 15.0 | 0.00 | 0.00 | 0.00 | 79 | |
| 20260505120540 | 59 | 48 | 10.0 | 16.0 | 0.00 | 0.00 | 0.00 | 79 | |
| 20260505115523 | 58 | 58 | 8.0 | 16.0 | 0.00 | 0.00 | 0.00 | 80 | |
| 20260505114536 | 58 | 59 | 9.0 | 15.0 | 0.00 | 0.00 | 0.00 | 79 | |
| 20260505113547 | 58 | 27 | 9.0 | 16.0 | 0.00 | 0.00 | 0.00 | 78 | |
| 20260505112531 | 59 | 34 | 7.0 | 14.0 | 0.00 | 0.00 | 0.00 | 80 | |
| 20260505111535 | 58 | 67 | 12.0 | 16.0 | 0.00 | 0.00 | 0.00 | 78 | |
| 20260505110528 | 57 | 42 | 12.0 | 19.0 | 0.00 | 0.00 | 0.00 | 81 |